TimeEDT,TemperatureF,Dew PointF,Humidity,Sea Level PressureIn,VisibilityMPH,Wind Direction,Wind SpeedMPH,Gust SpeedMPH,PrecipitationIn,Events,Conditions,WindDirDegrees,DateUTC
12:53 AM,39.0,34.0,82,30.31,7.0,Calm,Calm,-,N/A,,Clear,0,2013-03-28 04:53:00
1:53 AM,39.0,34.0,82,30.31,7.0,Calm,Calm,-,N/A,,Clear,0,2013-03-28 05:53:00
2:53 AM,37.0,33.1,86,30.31,5.0,Calm,Calm,-,N/A,,Clear,0,2013-03-28 06:53:00
3:53 AM,37.0,33.1,86,30.30,6.0,Calm,Calm,-,N/A,,Clear,0,2013-03-28 07:53:00
4:53 AM,36.0,32.0,86,30.30,5.0,Calm,Calm,-,N/A,,Clear,0,2013-03-28 08:53:00
5:53 AM,36.0,32.0,86,30.31,5.0,Calm,Calm,-,N/A,,Clear,0,2013-03-28 09:53:00
6:53 AM,36.0,32.0,86,30.33,5.0,Calm,Calm,-,N/A,,Clear,0,2013-03-28 10:53:00
7:53 AM,37.0,33.1,86,30.35,5.0,Calm,Calm,-,0.01,,Clear,0,2013-03-28 11:53:00
8:53 AM,48.0,37.0,66,30.36,10.0,Calm,Calm,-,N/A,,Clear,0,2013-03-28 12:53:00
9:53 AM,53.1,30.0,41,30.38,10.0,North,6.9,-,N/A,,Clear,10,2013-03-28 13:53:00
10:53 AM,57.9,26.1,30,30.38,10.0,North,12.7,19.6,N/A,,Clear,360,2013-03-28 14:53:00
11:53 AM,61.0,26.1,26,30.37,10.0,Variable,6.9,-,N/A,,Clear,0,2013-03-28 15:53:00
12:53 PM,64.9,25.0,22,30.36,10.0,NNW,9.2,17.3,N/A,,Clear,340,2013-03-28 16:53:00
1:53 PM,66.9,24.1,20,30.34,10.0,Variable,5.8,-,N/A,,Clear,0,2013-03-28 17:53:00
2:53 PM,66.9,26.1,21,30.31,10.0,North,9.2,17.3,N/A,,Clear,10,2013-03-28 18:53:00
3:53 PM,68.0,26.1,21,30.28,10.0,North,8.1,-,0.01,,Clear,360,2013-03-28 19:53:00
4:53 PM,69.1,28.0,22,30.27,10.0,North,9.2,-,N/A,,Clear,360,2013-03-28 20:53:00
5:53 PM,68.0,27.0,21,30.26,10.0,NNE,6.9,-,N/A,,Clear,20,2013-03-28 21:53:00
6:53 PM,64.9,28.9,26,30.27,10.0,North,4.6,-,N/A,,Clear,360,2013-03-28 22:53:00
7:53 PM,59.0,30.9,35,30.29,10.0,Calm,Calm,-,N/A,,Clear,0,2013-03-28 23:53:00
8:53 PM,52.0,35.1,53,30.30,10.0,Calm,Calm,-,N/A,,Clear,0,2013-03-29 00:53:00
9:53 PM,48.9,36.0,61,30.32,10.0,Calm,Calm,-,N/A,,Clear,0,2013-03-29 01:53:00
10:53 PM,46.0,35.1,66,30.33,10.0,Calm,Calm,-,N/A,,Clear,0,2013-03-29 02:53:00
11:53 PM,45.0,36.0,71,30.33,10.0,Calm,Calm,-,N/A,,Clear,0,2013-03-29 03:53:00